Temperature
16 16 16 16 16 16 15 15 15 15 15 15 15 15 15 15 15 15 14 14 14 14 14 14 14 14 14 14 13 13 13 13 13 12 12 12 12 12 12 11 11 11 11
16 16 16 16 16 15 15 15 15 15 15 15 15 15 15 15 15 14 14 14 14 14 14 14 14 14 14 13 13 13 13 13 13 12 12 12 12 12 11 11 11 11 11
16 16 16 15 15 15 15 15 15 15 15 15 15 15 15 15 14 14 14 14 14 14 14 14 14 13 13 13 13 13 13 13 13 12 12 12 12 11 11 11 11 11 11
16 16 16 15 15 15 15 15 15 15 15 15 15 15 15 14 14 14 14 14 14 14 13 13 13 13 13 13 13 13 13 12 12 12 12 12 11 11 11 11 11 10 10
16 16 15 15 15 15 15 15 15 15 15 15 15 15 14 14 14 14 14 14 14 13 13 13 13 13 13 13 13 13 12 12 12 12 12 11 11 11 11 11 10 10 10
15 15 15 15 15 15 15 15 15 15 15 15 15 14 14 14 14 14 14 14 13 13 13 13 13 13 13 13 12 12 12 12 12 12 12 11 11 11 11 10 10 10 10
15 15 15 15 15 15 15 15 15 14 14 14 14 14 14 14 14 14 13 13 13 13 13 13 13 12 12 12 12 12 12 12 11 11 11 11 11 11 10 10 10 10 9
15 15 14 14 14 14 14 14 14 14 14 14 14 14 14 14 13 13 13 13 13 13 12 12 12 12 12 12 12 12 12 11 11 11 11 11 10 10 10 10 9 9 9
14 14 14 14 14 14 14 14 14 14 14 14 14 13 13 13 13 13 13 13 12 12 12 12 12 12 12 12 12 12 11 11 11 11 11 10 10 10 10 9 9 9 9
14 14 14 14 14 14 14 14 14 13 13 13 13 13 13 13 13 13 12 12 12 12 12 12 12 12 12 11 11 11 11 11 11 11 10 10 10 10 10 9 9 9 8
14 13 13 13 13 14 14 13 13 13 13 13 13 13 13 12 12 12 12 12 12 12 12 12 12 11 11 11 11 11 11 11 10 10 10 10 10 10 9 9 9 8 8
13 13 13 13 13 13 13 13 13 13 13 13 12 12 12 12 12 12 12 12 12 12 12 12 11 11 11 11 11 11 10 10 10 10 10 10 10 9 9 9 8 8 8
13 13 13 13 13 13 13 13 13 12 12 12 12 12 12 12 12 11 11 11 11 11 11 11 11 11 11 11 10 10 10 10 10 10 10 9 9 9 8 8 8 7 7
13 13 13 12 12 12 12 12 12 12 12 12 12 12 12 11 11 11 11 11 11 11 11 11 11 10 10 10 10 10 10 10 9 9 9 9 8 8 8 8 7 7 7
12 12 12 12 12 12 12 12 12 12 12 12 12 12 11 11 11 11 11 11 11 11 10 10 10 10 10 10 10 10 9 9 9 9 9 8 8 8 8 7 7 7 6
12 12 12 12 12 12 12 11 11 11 11 11 11 11 11 11 11 11 10 10 10 10 10 10 10 10 10 10 9 9 9 9 9 8 8 8 8 7 7 7 6 6 6
12 12 12 12 12 11 11 11 11 11 11 11 10 10 10 10 10 10 10 10 10 10 9 10 9 9 9 9 9 9 8 8 8 8 8 7 7 7 7 6 6 6 6
12 12 11 11 11 11 11 11 11 10 10 10 10 10 10 10 10 9 9 9 9 9 9 9 9 9 9 8 8 8 8 8 7 7 7 7 7 6 6 6 6 5 5
11 11 11 11 11 11 10 10 10 10 10 10 10 10 9 9 9 9 9 9 9 9 9 9 8 8 8 8 8 7 7 7 7 7 6 6 6 6 6 5 5 5 4
11 11 11 11 10 10 10 10 10 9 9 9 9 9 9 9 9 8 8 8 8 8 8 8 8 8 7 7 7 7 7 6 6 6 6 6 6 5 5 5 5 4 4
11 10 10 10 10 9 9 9 9 9 9 9 8 8 8 8 8 8 8 8 8 8 7 7 7 7 7 7 7 6 6 6 6 6 5 5 5 5 5 4 4 4 3
10 10 10 9 9 9 9 9 8 8 8 8 8 8 7 7 7 7 7 7 7 7 7 7 7 7 6 6 6 6 6 6 5 5 5 5 5 4 4 4 3 3 3
10 9 9 9 9 9 8 8 8 8 8 7 7 7 7 7 7 7 7 7 7 6 6 6 6 6 6 6 6 5 5 5 5 5 4 4 4 4 3 3 3 3 2
9 9 9 8 8 8 8 8 7 7 7 7 7 7 6 6 6 6 6 6 6 6 6 5 5 5 5 5 5 5 5 4 4 4 4 4 3 3 3 3 2 2 2
8 8 8 8 8 8 7 7 7 7 7 6 6 6 6 6 6 5 5 5 5 5 5 5 5 5 5 5 4 4 4 4 4 4 3 3 3 3 3 2 2 2 2
8 8 7 7 7 7 7 7 6 6 6 6 6 6 5 5 5 5 5 5 5 5 4 4 4 4 4 4 4 4 4 3 3 3 3 3 3 2 2 2 2 2 1
Wind_Speed
5 5 5 4 4 4 4 4 4 3 3 3 4 4 3 3 3 3 3 3 3 2 2 2 1 2 2 2 2 2 3 4 4 1 0 1 2 2 3 3 3 3 3
4 4 5 5 4 4 4 4 4 4 3 3 4 4 4 3 3 3 3 3 3 3 2 2 2 2 2 2 2 3 2 3 4 3 1 1 1 2 2 2 2 2 2
4 4 4 4 4 4 4 4 4 4 3 3 3 4 4 4 3 3 3 3 3 3 3 3 2 3 2 2 2 2 2 3 3 4 2 0 1 1 2 1 2 1 1
3 4 4 4 4 4 4 4 4 4 4 4 3 4 4 4 4 4 4 3 3 2 2 3 3 4 4 4 3 3 3 4 4 4 2 1 1 0 2 1 1 1 1
4 4 4 4 4 4 4 3 3 3 4 4 4 4 3 4 4 4 4 4 4 3 2 2 2 4 4 4 4 4 4 4 3 3 2 1 1 1 1 1 1 0 1
4 4 3 3 3 3 4 4 4 4 3 4 4 4 3 3 5 7 6 4 4 3 2 1 2 2 3 5 5 6 6 5 4 3 2 2 2 2 1 2 2 1 1
4 3 3 3 3 3 4 4 4 4 4 4 3 3 3 4 5 6 7 5 4 3 3 2 2 2 3 3 3 4 4 4 5 5 4 4 3 3 3 2 2 3 2
4 3 3 4 3 3 3 4 4 3 4 4 3 3 3 4 5 6 6 5 4 3 3 3 3 2 3 4 3 3 1 1 2 3 4 4 4 4 4 3 3 2 0
3 4 4 4 4 4 4 4 4 3 3 3 3 3 3 3 5 6 6 3 3 2 2 2 3 3 4 6 5 3 1 1 0 2 3 2 2 3 4 3 2 2 1
4 4 4 4 4 4 4 4 3 3 3 3 3 3 4 3 4 6 7 4 3 2 1 1 3 4 4 6 5 4 3 2 1 1 1 1 1 2 3 4 4 3 1
4 3 3 4 4 4 4 3 3 3 3 3 3 2 3 4 4 6 7 4 4 3 2 2 2 4 5 6 6 5 5 4 2 2 1 1 1 1 1 1 3 3 3
4 3 3 3 4 3 3 3 3 4 4 3 2 1 1 2 3 5 6 7 6 4 3 3 3 4 5 5 5 5 5 4 3 2 1 1 1 1 1 1 2 3 3
4 4 3 2 2 3 4 4 3 3 3 3 3 3 2 1 2 4 5 6 7 4 3 4 3 3 3 3 4 4 4 3 3 2 2 2 2 2 1 0 1 1 2
5 4 3 3 2 2 3 3 4 4 4 4 4 4 3 2 2 2 2 2 3 3 1 2 2 2 2 2 1 1 2 3 3 3 3 2 1 1 1 1 1 0 1
6 5 4 4 4 3 2 3 4 5 6 6 5 5 5 4 5 6 5 4 4 4 3 2 1 1 1 0 0 1 1 1 2 2 2 1 1 1 1 1 1 1 1
5 5 4 4 4 3 2 1 2 2 4 5 6 6 5 6 6 6 6 6 6 7 4 2 3 3 3 3 2 2 2 2 3 3 2 2 3 3 2 1 1 2 2
6 6 5 5 4 4 3 3 2 2 1 2 3 5 5 6 6 6 6 6 6 7 3 3 4 4 4 3 3 3 3 3 3 3 3 3 3 3 2 2 2 2 3
6 6 6 5 5 4 4 4 4 3 2 2 2 3 4 5 5 5 5 4 2 3 3 4 4 4 4 4 4 3 3 3 2 3 3 3 3 3 3 3 3 3 3
6 5 5 5 4 4 4 4 4 4 3 2 1 1 2 3 3 4 5 3 4 4 4 4 4 4 4 4 4 4 4 4 4 3 3 3 3 3 3 3 4 5 4
5 6 6 4 4 3 4 4 4 4 4 3 3 2 1 2 1 2 3 3 3 4 4 4 4 4 4 4 4 4 4 4 4 4 4 4 4 4 4 4 4 4 4
4 5 5 4 4 4 4 4 4 4 4 4 3 3 4 3 4 4 3 3 4 4 4 4 3 4 4 4 4 4 5 4 4 4 4 4 4 4 4 4 4 4 4
4 4 4 4 4 4 4 4 4 4 4 4 2 2 4 2 2 3 3 3 3 3 3 3 3 3 4 4 4 4 4 4 4 4 4 4 4 4 4 4 4 4 4
4 4 4 4 3 4 4 4 4 4 4 4 3 2 2 3 3 3 3 3 3 3 3 3 3 3 4 4 4 4 5 5 5 4 4 4 3 4 4 4 5 5 5
4 5 4 4 3 4 4 4 4 4 4 4 4 3 3 3 3 4 3 3 3 3 3 4 4 5 5 4 4 4 5 6 5 5 5 4 4 4 4 4 5 6 6
4 4 4 4 4 4 4 3 3 3 3 3 3 3 3 3 3 3 3 2 3 3 3 4 4 4 5 5 4 5 5 6 6 5 5 5 5 5 5 5 5 5 6
4 4 4 3 4 4 3 3 3 3 3 3 3 2 2 3 3 3 2 2 2 3 3 3 4 5 5 5 5 6 6 6 6 6 5 4 5 5 5 5 6 6 6
Wind_Direction
177 176 173 180 173 162 160 167 167 160 159 162 164 159 161 157 148 138 142 142 139 129 117 120 113 107 100 88 95 101 109 126 143 212 336 98 112 118 110 127 137 122 115
178 169 174 173 164 160 165 170 159 155 159 161 154 155 165 162 157 151 156 145 145 143 137 122 123 114 103 91 99 101 109 120 137 148 135 76 114 142 125 123 119 126 126
168 160 159 159 163 170 173 166 157 155 155 155 153 155 159 155 153 151 147 144 150 157 154 146 147 125 122 111 108 106 100 102 109 133 145 78 78 102 97 93 95 70 99
159 159 161 165 166 166 163 159 158 154 148 147 152 154 154 147 140 138 134 131 133 134 140 151 152 149 156 142 128 123 112 102 103 113 116 95 94 101 104 122 73 20 24
150 155 168 164 153 141 141 150 148 144 143 139 136 138 137 139 143 142 141 134 130 118 114 134 145 147 148 142 136 140 128 117 113 114 119 99 88 121 179 183 155 340 338
153 165 161 149 143 140 145 146 141 138 135 131 137 144 145 152 147 144 141 136 129 127 132 146 133 123 131 129 127 133 138 138 147 141 140 150 197 196 177 158 146 114 289
154 155 149 149 153 163 153 142 150 155 144 136 142 143 150 159 147 143 143 136 137 143 148 144 138 132 123 124 118 118 122 134 150 156 159 185 195 205 182 177 180 172 213
159 159 160 154 156 158 149 156 169 163 158 159 161 161 157 165 150 149 151 137 138 152 163 172 165 166 154 147 134 117 109 129 161 156 176 195 198 198 188 187 186 164 326
167 175 178 173 165 157 159 178 177 162 160 166 163 160 157 170 158 152 145 134 136 160 176 166 169 176 176 156 141 144 140 304 340 185 194 195 200 181 155 116 113 122 240
187 194 188 178 173 177 182 180 169 161 169 163 160 169 169 179 174 160 153 145 146 165 177 189 177 174 171 162 159 160 177 228 197 67 67 73 89 122 146 152 166 161 181
192 185 183 187 186 187 183 174 162 161 153 156 163 178 183 190 186 173 165 165 173 176 191 216 219 194 183 179 174 180 194 185 164 146 116 60 47 59 86 151 166 171 181
173 175 187 195 195 187 175 180 173 162 158 164 158 179 222 214 193 192 183 179 171 175 196 212 214 200 194 187 183 188 183 156 136 133 132 173 223 245 247 218 207 208 210
168 184 194 194 191 179 179 183 176 175 176 183 183 201 231 242 224 203 196 190 181 185 197 191 194 198 193 193 190 177 158 146 147 158 190 220 227 230 185 92 10 323 321
178 188 190 187 188 183 182 183 181 188 192 196 198 205 216 222 228 217 214 209 195 192 181 163 159 153 141 140 145 165 164 173 170 186 206 224 214 178 198 191 200 228 304
188 189 191 196 191 188 192 202 201 210 204 200 204 197 196 216 225 212 195 199 198 193 154 110 103 106 123 150 182 194 178 164 184 191 185 199 213 216 236 220 188 169 215
193 197 196 194 192 186 186 232 263 221 217 207 204 200 211 216 213 208 202 198 190 171 149 169 191 194 201 206 209 215 208 210 211 201 199 206 214 222 235 231 203 208 237
196 201 196 192 192 191 191 193 219 313 331 216 205 202 208 206 202 204 203 193 180 164 167 196 205 208 209 206 206 205 216 221 210 204 209 214 218 224 225 229 227 235 247
197 201 193 193 195 196 200 204 199 197 219 276 270 224 218 213 203 197 185 152 163 180 201 208 214 215 211 209 209 211 217 216 213 218 221 220 218 220 226 230 229 231 243
196 200 194 192 194 198 202 202 200 200 206 217 246 273 233 216 198 185 165 172 193 207 212 216 215 212 213 212 212 213 216 220 220 219 224 224 224 220 229 236 238 245 244
201 199 189 186 190 197 203 203 203 203 206 207 215 217 182 131 154 185 195 201 202 210 212 217 219 217 213 212 213 213 218 225 224 224 227 228 223 220 229 235 237 242 244
191 195 188 182 191 198 202 206 206 206 210 215 225 218 186 186 201 206 209 214 218 219 218 220 220 218 219 218 215 216 220 227 226 226 230 228 222 225 232 237 242 243 248
183 183 185 193 199 200 203 203 201 202 207 212 224 219 201 198 204 211 216 225 231 230 218 212 218 220 218 216 215 218 223 229 229 227 230 228 226 229 233 237 244 249 250
178 180 185 195 200 202 202 199 199 203 209 210 207 207 207 216 225 227 230 233 229 228 222 212 216 229 233 228 219 212 219 227 225 220 222 229 231 234 238 242 245 251 254
181 183 188 195 198 198 199 201 202 203 206 209 209 212 217 222 230 235 235 232 226 227 226 224 227 232 235 234 235 234 236 238 231 223 218 222 233 240 242 250 253 254 257
177 181 184 191 197 197 197 199 201 201 203 209 213 217 224 228 231 238 240 231 226 234 244 242 242 241 239 231 234 241 245 246 240 235 228 225 232 238 241 247 253 260 263
177 180 187 191 192 192 194 199 204 204 205 212 216 219 222 228 232 234 237 235 234 239 249 252 248 243 241 236 238 238 241 246 248 250 241 233 236 242 245 250 253 256 261
Height
1532 1533 1534 1535 1537 1537 1538 1539 1540 1541 1542 1542 1543 1543 1543 1543 1543 1544 1544 1544 1544 1544 1544 1544 1544 1544 1544 1543 1544 1544 1544 1544 1544 1546 1546 1547 1547 1547 1547 1547 1547 1547 1546
1530 1531 1532 1534 1535 1536 1537 1538 1539 1540 1541 1541 1542 1542 1542 1542 1542 1543 1543 1543 1543 1543 1543 1543 1543 1543 1543 1543 1543 1543 1543 1544 1544 1544 1545 1546 1546 1546 1547 1547 1547 1546 1546
1528 1529 1530 1531 1533 1534 1535 1537 1538 1538 1539 1540 1540 1541 1541 1541 1541 1541 1542 1542 1542 1542 1542 1542 1542 1542 1542 1542 1543 1543 1543 1543 1543 1544 1544 1545 1545 1545 1545 1545 1545 1545 1545
1526 1527 1528 1529 1531 1532 1533 1535 1536 1537 1538 1538 1539 1540 1540 1540 1540 1540 1541 1541 1541 1541 1541 1541 1541 1541 1542 1542 1542 1542 1542 1542 1543 1543 1543 1543 1544 1544 1544 1544 1544 1544 1543
1524 1525 1526 1528 1529 1531 1531 1533 1534 1535 1536 1537 1538 1538 1539 1539 1539 1539 1539 1540 1540 1540 1540 1540 1540 1541 1541 1541 1541 1541 1541 1542 1542 1542 1542 1542 1542 1542 1542 1542 1542 1542 1542
1523 1524 1525 1526 1528 1529 1530 1531 1532 1533 1534 1535 1536 1536 1537 1537 1538 1538 1538 1538 1539 1539 1539 1539 1539 1540 1540 1540 1540 1540 1541 1541 1541 1541 1540 1540 1540 1540 1540 1540 1540 1540 1540
1521 1522 1523 1524 1525 1526 1528 1529 1530 1531 1532 1533 1534 1534 1535 1535 1536 1536 1537 1537 1537 1537 1538 1538 1538 1538 1539 1539 1539 1539 1539 1540 1540 1540 1539 1539 1539 1539 1539 1538 1538 1538 1538
1519 1520 1521 1522 1523 1524 1525 1526 1527 1529 1530 1531 1532 1532 1533 1534 1534 1535 1535 1536 1536 1536 1536 1536 1537 1537 1537 1538 1538 1538 1538 1538 1538 1538 1538 1538 1538 1537 1537 1537 1536 1536 1536
1516 1517 1519 1520 1521 1522 1523 1523 1525 1526 1527 1528 1529 1530 1531 1532 1532 1533 1533 1533 1534 1534 1535 1535 1535 1535 1536 1536 1536 1536 1536 1536 1537 1536 1536 1536 1536 1535 1535 1535 1534 1533 1533
1514 1515 1517 1518 1518 1519 1520 1521 1522 1523 1524 1525 1526 1527 1528 1529 1530 1530 1531 1531 1532 1532 1533 1533 1533 1533 1534 1534 1534 1534 1534 1534 1534 1534 1534 1534 1533 1533 1533 1532 1532 1531 1530
1512 1513 1514 1515 1516 1517 1517 1518 1519 1520 1521 1522 1523 1524 1525 1526 1527 1528 1528 1529 1529 1530 1530 1530 1531 1531 1532 1532 1532 1532 1532 1532 1532 1532 1531 1531 1531 1530 1530 1530 1529 1529 1528
1510 1510 1511 1512 1513 1513 1514 1515 1516 1517 1518 1519 1520 1520 1521 1522 1523 1524 1525 1526 1527 1527 1527 1528 1528 1529 1529 1529 1529 1529 1530 1529 1529 1529 1528 1528 1528 1528 1527 1527 1526 1526 1525
1507 1508 1508 1509 1510 1510 1511 1512 1513 1514 1514 1515 1516 1517 1517 1519 1520 1521 1522 1523 1523 1524 1524 1525 1525 1526 1526 1526 1526 1526 1527 1526 1526 1526 1525 1525 1525 1525 1524 1524 1523 1522 1521
1503 1504 1505 1506 1506 1507 1508 1508 1509 1510 1511 1512 1512 1513 1514 1515 1516 1517 1518 1519 1519 1520 1520 1521 1521 1522 1522 1522 1522 1523 1523 1523 1523 1522 1522 1522 1522 1521 1521 1520 1519 1518 1517
1500 1501 1502 1502 1503 1503 1504 1505 1505 1506 1507 1508 1509 1509 1510 1511 1512 1513 1514 1514 1515 1516 1517 1517 1517 1518 1518 1518 1518 1519 1519 1519 1519 1519 1519 1518 1518 1517 1517 1516 1515 1514 1513
1496 1497 1498 1499 1499 1500 1500 1501 1502 1503 1504 1504 1505 1506 1507 1508 1509 1510 1510 1511 1512 1512 1513 1512 1513 1513 1514 1514 1514 1515 1515 1515 1515 1515 1514 1514 1513 1513 1512 1512 1511 1510 1509
1492 1493 1494 1495 1495 1496 1496 1497 1498 1499 1500 1501 1501 1502 1503 1504 1504 1505 1506 1507 1507 1508 1508 1508 1509 1509 1509 1510 1510 1510 1511 1511 1511 1511 1510 1510 1509 1509 1508 1507 1507 1506 1505
1488 1489 1490 1490 1491 1492 1493 1493 1494 1494 1495 1496 1497 1498 1499 1500 1500 1501 1502 1502 1502 1503 1503 1503 1504 1504 1505 1505 1506 1506 1506 1506 1506 1506 1505 1505 1504 1504 1503 1502 1502 1501 1500
1483 1484 1485 1486 1487 1488 1489 1490 1490 1490 1491 1491 1492 1493 1494 1495 1496 1497 1497 1497 1497 1497 1498 1498 1499 1499 1500 1500 1501 1501 1501 1501 1501 1501 1500 1500 1499 1499 1498 1497 1497 1496 1495
1479 1480 1481 1482 1483 1484 1485 1485 1485 1486 1486 1487 1487 1488 1489 1489 1490 1491 1492 1492 1492 1493 1493 1494 1494 1495 1495 1495 1495 1495 1495 1495 1495 1495 1495 1494 1494 1494 1493 1492 1491 1491 1489
1475 1476 1477 1478 1478 1479 1480 1481 1481 1481 1482 1482 1483 1483 1484 1485 1485 1486 1486 1487 1488 1488 1488 1489 1489 1490 1490 1490 1490 1490 1490 1490 1490 1490 1489 1489 1488 1488 1487 1487 1486 1485 1484
1470 1471 1472 1473 1474 1475 1475 1476 1477 1477 1478 1478 1478 1479 1480 1481 1481 1481 1482 1482 1483 1483 1484 1484 1484 1485 1485 1485 1485 1485 1484 1484 1484 1484 1484 1483 1483 1482 1482 1481 1480 1479 1478
1466 1467 1468 1468 1469 1470 1471 1472 1472 1473 1473 1474 1475 1475 1476 1476 1477 1477 1477 1477 1478 1478 1479 1479 1479 1479 1480 1480 1479 1479 1479 1479 1479 1478 1478 1478 1477 1476 1476 1475 1474 1473 1472
1462 1462 1463 1464 1465 1466 1467 1467 1468 1469 1469 1470 1470 1471 1471 1472 1472 1473 1473 1473 1473 1474 1474 1474 1474 1474 1475 1475 1474 1474 1474 1473 1473 1473 1472 1472 1471 1470 1470 1469 1468 1467 1466
1458 1458 1459 1460 1460 1461 1462 1463 1464 1464 1465 1465 1466 1466 1467 1467 1467 1468 1468 1468 1468 1469 1469 1469 1469 1469 1469 1469 1469 1468 1468 1468 1467 1467 1466 1466 1465 1464 1464 1463 1462 1461 1461
1453 1454 1455 1456 1456 1457 1458 1458 1459 1460 1460 1461 1461 1462 1462 1462 1462 1463 1463 1463 1463 1463 1464 1464 1464 1464 1463 1463 1463 1463 1462 1462 1461 1461 1460 1459 1459 1458 1457 1457 1456 1455 1454